GW0092 Weather Reports


time (UTC)temp
F
wind
direction
speed
knots
gust
knots
rain 1hr
in
rain 24hr
in
rain mn
in
humidity
%
barometer
mb
20260510104559 53 0 0.0 0.0 0.00 0.16 0.00 99 1012.2
20260510103051 53 0 0.0 0.0 0.00 0.16 0.00 99 1012.2
20260510101552 53 0 0.0 0.0 0.00 0.16 0.00 99 1012.0
20260510100056 53 0 0.0 0.0 0.00 0.16 0.00 98 1011.6
20260510094602 54 0 0.0 0.0 0.00 0.16 0.00 99 1011.6
20260510093117 54 0 0.0 0.0 0.00 0.16 0.00 99 1011.4
20260510091550 54 0 0.0 0.0 0.00 0.16 0.00 99 1011.4
20260510090055 54 0 0.0 0.0 0.00 0.16 0.00 99 1011.3
20260510084601 54 0 0.0 0.0 0.00 0.16 0.00 99 1011.1
20260510083059 54 0 0.0 0.0 0.00 0.16 0.00 99 1011.0
20260510081600 53 0 0.0 0.0 0.00 0.16 0.00 98 1011.0
20260510080054 54 0 0.0 0.0 0.00 0.16 0.00 98 1011.0
20260510074555 54 0 0.0 0.0 0.00 0.16 0.00 98 1011.0
20260510073052 55 0 0.0 0.0 0.00 0.16 0.00 99 1010.9
20260510071555 55 0 0.0 0.0 0.00 0.16 0.00 99 1011.0
20260510070054 54 0 0.0 0.0 0.00 0.16 0.00 98 1011.1
20260510064553 54 0 0.0 0.0 0.00 0.16 0.00 98 1011.1
20260510063057 54 0 0.0 0.0 0.00 0.16 0.00 98 1011.1
20260510061555 55 0 0.0 0.0 0.00 0.16 0.00 98 1011.1
20260510060100 55 0 0.0 0.0 0.00 0.16 0.00 98 1011.1
20260510054559 55 0 0.0 0.0 0.00 0.16 0.00 98 1011.1
20260510053101 55 0 0.0 0.0 0.00 0.16 0.00 98 1011.3
20260510051557 56 0 0.0 0.0 0.00 0.16 0.00 98 1011.3
20260510050056 55 0 0.0 0.0 0.00 0.16 0.00 98 1011.3
20260510044557 56 0 0.0 0.0 0.00 0.16 0.00 98 1011.3
20260510043102 56 0 0.0 0.0 0.00 0.16 0.00 98 1011.2
20260510041555 57 0 0.0 0.0 0.00 0.16 0.00 97 1011.2
20260510040059 58 0 0.0 0.0 0.00 0.16 0.00 98 1011.2
20260510034555 58 0 0.0 0.0 0.00 0.16 0.16 98 1011.0
20260510033107 58 0 0.0 0.0 0.00 0.16 0.16 97 1010.9
20260510031554 58 0 0.0 0.0 0.00 0.16 0.16 97 1010.9
20260510030103 58 0 0.0 0.0 0.00 0.16 0.16 97 1010.8
20260510024557 58 0 0.0 0.0 0.00 0.16 0.16 97 1010.8
20260510023053 59 0 0.0 0.0 0.00 0.16 0.16 97 1010.8
20260510021552 60 0 0.0 0.0 0.00 0.16 0.16 97 1010.9
20260510020058 60 0 0.0 0.0 0.00 0.16 0.16 96 1010.9
20260510014559 60 0 0.0 0.0 0.00 0.16 0.16 96 1010.8
20260510013057 61 0 0.0 0.0 0.00 0.16 0.16 96 1010.7
20260510011554 61 0 0.0 0.0 0.00 0.16 0.16 95 1010.6
20260510010056 61 0 0.0 0.0 0.00 0.16 0.16 95 1010.3
20260510004559 62 0 0.0 0.0 0.00 0.16 0.16 94 1010.1
20260510003059 62 0 0.0 0.0 0.00 0.16 0.16 93 1010.0
20260510001552 63 0 0.0 0.0 0.00 0.16 0.16 93 1010.1
20260510000100 63 0 0.0 0.0 0.00 0.16 0.16 93 1010.1
20260509234552 64 0 0.0 0.0 0.00 0.16 0.16 92 1009.9
20260509233053 65 0 0.0 0.9 0.00 0.16 0.16 90 1009.9
20260509231552 66 129 0.0 2.6 0.00 0.16 0.16 88 1009.7
20260509230056 68 132 0.9 1.7 0.00 0.16 0.16 87 1009.4
20260509224552 68 141 0.9 1.7 0.00 0.16 0.16 87 1009.4
20260509223050 68 134 0.9 3.5 0.00 0.16 0.16 87 1009.3
20260509221549 68 143 0.9 3.5 0.00 0.16 0.16 87 1009.4
20260509220052 68 104 1.7 5.2 0.00 0.16 0.16 86 1009.6
20260509214610 68 181 0.9 7.0 0.00 0.16 0.16 85 1009.7
20260509213051 69 184 1.7 4.3 0.00 0.16 0.16 84 1009.6
20260509211550 69 86 1.7 5.2 0.00 0.16 0.16 84 1009.5
20260509204556 69 82 2.6 7.8 0.00 0.16 0.16 83 1009.8
20260509203107 70 149 2.6 12.2 0.00 0.16 0.16 83 1010.1
20260509201553 69 84 2.6 7.8 0.00 0.16 0.16 85 1010.1
20260509200055 68 0 0.9 8.7 0.00 0.16 0.16 87 1010.6
20260509194601 68 79 2.6 6.1 0.00 0.16 0.16 84 1010.6
20260509193106 67 183 2.6 7.8 0.00 0.16 0.16 86 1010.8
20260509191607 66 138 1.7 5.2 0.00 0.16 0.16 86 1010.9
20260509190057 66 121 0.9 5.2 0.00 0.16 0.16 89 1011.0
20260509184601 67 328 0.9 5.2 0.00 0.16 0.16 93 1011.1
20260509183057 66 83 1.7 4.3 0.00 0.16 0.16 94 1011.5
20260509181552 65 99 0.9 5.2 0.05 0.16 0.16 97 1011.6
20260509180049 63 67 0.9 2.6 0.06 0.16 0.16 98 1011.9
20260509174619 62 0 0.0 0.0 0.11 0.16 0.16 97 1012.0
20260509173056 61 0 0.0 0.0 0.12 0.16 0.16 96 1012.1
20260509171551 61 0 0.0 0.9 0.09 0.11 0.11 96 1012.2
20260509170051 61 0 0.0 3.5 0.10 0.10 0.10 96 1012.3
20260509164553 61 0 0.0 0.9 0.05 0.05 0.05 96 1012.2
20260509163055 61 150 0.0 2.6 0.04 0.04 0.04 94 1012.5
20260509161555 61 115 0.0 3.5 0.02 0.02 0.02 93 1012.8
20260509160057 63 103 1.7 6.1 0.00 0.00 0.00 89 1012.9
20260509154555 64 131 1.7 7.0 0.00 0.00 0.00 86 1013.2
20260509153100 66 167 1.7 4.3 0.00 0.00 0.00 85 1013.5
20260509151551 66 128 2.6 6.1 0.00 0.00 0.00 82 1013.7
20260509150052 66 152 1.7 5.2 0.00 0.00 0.00 82 1013.6
20260509144553 67 117 0.9 7.8 0.00 0.00 0.00 79 1013.7
20260509143055 68 73 1.7 9.6 0.00 0.00 0.00 80 1013.7
20260509141559 67 113 0.9 4.3 0.00 0.00 0.00 83 1013.8
20260509134554 65 141 1.7 4.3 0.00 0.00 0.00 85 1013.6
20260509133054 64 0 1.7 7.0 0.00 0.00 0.00 86 1013.6
20260509131555 63 144 0.9 3.5 0.00 0.00 0.00 88 1013.8
20260509130107 62 130 1.7 5.2 0.00 0.00 0.00 88 1013.9
20260509124555 61 143 0.9 3.5 0.00 0.00 0.00 89 1014.0
20260509123053 61 131 0.9 5.2 0.00 0.00 0.00 89 1013.8
20260509121616 60 128 0.9 3.5 0.00 0.00 0.00 90 1013.9
20260509120056 60 127 0.9 2.6 0.00 0.00 0.00 91 1013.9
20260509114600 59 139 0.0 3.5 0.00 0.00 0.00 90 1014.2
20260509113058 59 150 0.0 6.1 0.00 0.00 0.00 90 1014.2
20260509111559 58 161 0.9 4.3 0.00 0.00 0.00 91 1014.3
20260509110100 57 139 0.0 2.6 0.00 0.00 0.00 92 1014.2